This is the latest recevied weather packets stored in our database for station/object G8SIB-9. If no packets are shown the sender has not sent any weather packets the latest 10 day(s).
| Time | Temp. | Humidity | Pressure | Rain* | Wind** | Luminosity | Snow |
|---|---|---|---|---|---|---|---|
| 1777843962 | 13.33° C | 74% | 1007.8 hPa | 0 mm | - | - | - |
| 1777843361 | 13.33° C | 73% | 1007.8 hPa | 0 mm | - | - | - |
| 1777842760 | 13.89° C | 73% | 1007.8 hPa | 0 mm | - | - | - |
| 1777842158 | 13.89° C | 72% | 1007.7 hPa | 0 mm | - | - | - |
| 1777841558 | 13.89° C | 74% | 1007.6 hPa | 0 mm | - | - | - |
| 1777840957 | 13.89° C | 72% | 1007.4 hPa | 0 mm | - | - | - |
| 1777840356 | 14.44° C | 69% | 1007.4 hPa | 0 mm | - | - | - |
| 1777839755 | 15° C | 67% | 1007.3 hPa | 0 mm | - | - | - |
| 1777839155 | 15° C | 67% | 1007.2 hPa | 0 mm | - | - | - |
| 1777838554 | 15.56° C | 66% | 1007 hPa | 0 mm | - | - | - |
| 1777837953 | 15.56° C | 64% | 1006.9 hPa | 0 mm | - | - | - |
| 1777837353 | 16.11° C | 64% | 1006.9 hPa | 0 mm | - | - | - |
| 1777836752 | 16.11° C | 63% | 1006.8 hPa | 0 mm | - | - | - |
| 1777836151 | 16.11° C | 62% | 1006.6 hPa | 0 mm | - | - | - |
| 1777835550 | 16.11° C | 62% | 1006.5 hPa | 0 mm | - | - | - |
| 1777834950 | 16.67° C | 60% | 1006.4 hPa | 0 mm | - | - | - |
| 1777834348 | 17.22° C | 58% | 1006.3 hPa | 0 mm | - | - | - |
| 1777833748 | 17.22° C | 58% | 1006.2 hPa | 0 mm | - | - | - |
| 1777833146 | 17.22° C | 57% | 1006.1 hPa | 0 mm | - | - | - |
| 1777832545 | 17.78° C | 56% | 1006 hPa | 0 mm | - | - | - |
| 1777831944 | 17.78° C | 54% | 1006 hPa | 0 mm | - | - | - |
| 1777831344 | 18.33° C | 54% | 1006 hPa | 0 mm | - | - | - |
| 1777830743 | 17.78° C | 55% | 1005.9 hPa | 0 mm | - | - | - |
| 1777830142 | 18.33° C | 54% | 1005.8 hPa | 0 mm | - | - | - |
| 1777829541 | 18.89° C | 53% | 1005.7 hPa | 0 mm | - | - | - |
* Rain latest hour (hover to see other rain measurements)
** Current wind speed in m/s (hover to see current wind gust speed)